Regional Weather Roundup
Issued by NWS Lake Charles, LA

Home | Current Version | Previous Version | Text Only | Print | Product List | Glossary On
Versions: 1 2 3 4 5 6 7 8 9 10 11 12 13 14 15 16 17 18 19 20 21 22 23 24 25 26 27 28
000
ASUS44 KLCH 201510
RWRLCH
REGIONAL WEATHER ROUNDUP
NATIONAL WEATHER SERVICE LAKE CHARLES LA
900 AM CST SAT JAN 20 2018

Note: "fair" indicates few or no clouds below 12,000 feet with no
significant weather and/or obstructions to visibility.


ACROSS SOUTHEAST TEXAS

CITY           SKY/WX    TMP DP  RH WIND       PRES   REMARKS
BEAUMONT       FAIR      56  54  93 SE10      30.14R
BEAUMONT CITY  CLOUDY    57  55  92 E6        30.14R
ORANGE         CLOUDY    54  54 100 SE6       30.16S
JASPER         CLOUDY    53  51  93 E5        30.16S
$$

ACROSS CENTRAL LOUISIANA

CITY           SKY/WX    TMP DP  RH WIND       PRES   REMARKS
LEESVILLE      CLOUDY    50  48  95 SE8       30.16R
FULLERTON      CLOUDY    51  49  92 VRB5      30.15R
ALEXANDRIA INT LGT RAIN  47  46  97 SE10      30.18R FOG
ESLER FIELD    CLOUDY    48  47  96 SE3       30.19R FOG
DERIDDER       CLOUDY    51  49  95 SE7       30.18R
OAKDALE        LGT RAIN  50  47  90 SE3       30.19R
OPELOUSAS      LGT RAIN  49  46  92 SE9       30.21R
$$

ACROSS SOUTHWEST AND SOUTH CENTRAL LOUISIANA

CITY           SKY/WX    TMP DP  RH WIND       PRES   REMARKS
SULPHUR        CLOUDY    55  54  95 E5        30.17R
LAKE CHARLES   CLOUDY    54  52  93 SE12      30.17R
CHENNAULT INT  NOT AVBL
CAMERON PHI    PTSUNNY   52  52 100 E10       30.17R
DEQUINCY       CLOUDY    52  51  96 SE6       30.16S
JENNINGS       LGT RAIN  51  48  92 SE12      30.19R
LAFAYETTE      CLOUDY    52  47  83 E6        30.20R
NEW IBERIA     LGT RAIN  53  49  86 SE8       30.21R
ABBEVILLE      CLOUDY    51  51 100 CALM      30.21R
PATTERSON      PTSUNNY   54  52  93 E7        30.23R
SALT POINT       N/A     57  53  86 E6        30.20R
$$

SELECTED SITES ACROSS THE REGION

CITY           SKY/WX    TMP DP  RH WIND       PRES   REMARKS
HOUSTON BUSH   FOG       57  57 100 E5        30.11R VSB<1/4
HOUSTON HOBBY  CLOUDY    56  56 100 SE6       30.10R FOG
GALVESTON      CLOUDY    62  61  96 SE13      30.12R FOG
COLLEGE STAT   LGT RAIN  56  56 100 S7        30.09R VSB 1/2
CONROE         FOG       54  54 100 SE3       30.11R VSB 1/4
HUNTSVILLE     CLOUDY    55  55 100 SE7       30.09R FOG
LUFKIN         FOG       52  51  97 SE8       30.11R VSB 1/2
SHREVEPORT     CLOUDY    48  43  82 SE6       30.12R
MONROE         CLOUDY    50  37  61 S9        30.19S
NATCHEZ MS     LGT RAIN  55  41  59 SE13      30.21S
BATON ROUGE    LGT RAIN  51  44  77 E7        30.23R
N.O. INTL ARPT PTSUNNY   56  53  90 E8        30.24R
SLIDELL        PTSUNNY   56  46  69 E8        30.26R
$$

MARINE REPORTS

STATION/POSITION TIME  SKY/WX   TEMP    WIND        PRES    VSBY
                                AIR SEA DIR/SP/G
                 (UTC)          (F)     (DEG/KT/KT) (MB)    (MI)
BUOY 30 S HIGH I 1350            56 52  110/  8/  8 1019.7
WVE H/P(F/S)=  4/ 6

SEA RIM ST PARK  1500            54     110/ 11/ 13 1020.9R
PORT ARTHUR      1436            49      90/  4/  5 1020.8R
SABINE PASS N    1436            53 49  120/  8/ 11 1022.2R
TEXAS POINT      NOT AVBL
CALCASIEU PASS   1436            50 46  120/ 11/ 13 1019.8R
LK CHARLES BEACH 1436            53 49              1020.9R
MARSH ISLAND     1400            48                   N/A
FRESH WATER LOCK 1436            50 42  110/ 11/ 14 1022.1R
AMERADA PASS     1436            53 44   90/  7/ 10 1022.8R
$$




USA.gov is the U.S. government's official web portal to all federal, state and local government web resources and services.